Location: Bowman Observatory
(41.0326°N, 73.6210°W)
Time: 22:15:48
(UTC-04:00)

Cosmos 2297 - Visible Passes

Search period start: 22 October 2014 00:00
Search period end: 01 November 2014 00:00
Orbit: 836 x 859 km, 71.0° (Epoch: 21 October)

Date Brightness Start Highest point End Pass type
(mag) Time Alt. Az. Time Alt. Az. Time Alt. Az.
22 Oct 4.5 19:11:24 10° N 19:16:21 30° NE 19:18:50 22° E visible
22 Oct 4.8 20:55:22 10° NW 21:00:36 40° WSW 21:00:50 40° WSW visible
23 Oct 4.5 18:58:10 10° N 19:03:05 30° NE 19:06:52 15° ESE visible
23 Oct 4.8 20:42:06 10° NW 20:47:21 41° WSW 20:48:53 34° SW visible
24 Oct 4.5 18:44:56 10° N 18:49:49 29° NE 18:54:40 10° ESE visible
24 Oct 4.8 20:28:50 10° NW 20:34:06 41° WSW 20:37:16 22° SSW visible
25 Oct 4.6 18:31:42 10° N 18:36:33 29° NE 18:41:22 10° ESE visible
25 Oct 4.8 20:15:34 10° NW 20:20:51 42° WSW 20:26:05 10° S visible
26 Oct 4.6 18:18:27 10° N 18:23:17 28° NE 18:28:04 10° ESE visible
26 Oct 4.8 20:02:18 10° NW 20:07:36 43° WSW 20:12:52 10° S visible
27 Oct 4.8 19:49:02 10° NW 19:54:21 44° WSW 19:59:38 10° S visible
28 Oct 4.8 19:35:46 10° NW 19:41:06 45° WSW 19:46:24 10° S visible
29 Oct 4.8 19:22:29 10° NW 19:27:51 46° WSW 19:33:10 10° S visible
30 Oct 4.8 19:09:13 10° NW 19:14:36 47° WSW 19:19:55 10° S visible
31 Oct 4.8 18:55:57 10° NW 19:01:20 48° WSW 19:06:41 10° S visible
